This is the latest recevied weather packets stored in our database for station/object VK3MAK-1. If no packets are shown the sender has not sent any weather packets the latest 10 day(s).
| Time | Temp. | Humidity | Pressure | Rain* | Wind** | Luminosity | Snow |
|---|---|---|---|---|---|---|---|
| 1777642804 | 17.78° C | 50% | 1018.5 hPa | 0 mm | 3.13 m/s, 23° | - | - |
| 1777642203 | 18.33° C | 48% | 1019 hPa | 0 mm | 3.58 m/s, 23° | - | - |
| 1777641604 | 18.33° C | 48% | 1019 hPa | 0 mm | 3.58 m/s, 23° | - | - |
| 1777641003 | 18.33° C | 48% | 1019 hPa | 0 mm | 3.58 m/s, 23° | - | - |
| 1777640404 | 17.78° C | 52% | 1019.3 hPa | 0 mm | 2.68 m/s, 23° | - | - |
| 1777639805 | 17.78° C | 52% | 1019.3 hPa | 0 mm | 2.68 m/s, 23° | - | - |
| 1777639203 | 17.78° C | 52% | 1019.3 hPa | 0 mm | 2.68 m/s, 23° | - | - |
| 1777638604 | 17.78° C | 51% | 1019.5 hPa | 0 mm | 3.13 m/s, 23° | - | - |
| 1777638004 | 17.78° C | 51% | 1019.5 hPa | 0 mm | 3.13 m/s, 23° | - | - |
| 1777637403 | 17.78° C | 51% | 1019.5 hPa | 0 mm | 3.13 m/s, 23° | - | - |
| 1777636810 | 17.22° C | 51% | 1019.6 hPa | 0 mm | 3.13 m/s, 23° | - | - |
| 1777636204 | 17.22° C | 51% | 1019.6 hPa | 0 mm | 3.13 m/s, 23° | - | - |
| 1777635603 | 17.22° C | 51% | 1019.6 hPa | 0 mm | 3.13 m/s, 23° | - | - |
| 1777635004 | 17.22° C | 50% | 1019.7 hPa | 0 mm | 3.13 m/s, 23° | - | - |
| 1777634404 | 17.22° C | 50% | 1019.7 hPa | 0 mm | 3.13 m/s, 23° | - | - |
| 1777633804 | 17.22° C | 50% | 1019.7 hPa | 0 mm | 3.13 m/s, 23° | - | - |
| 1777633205 | 18.33° C | 48% | 1019.6 hPa | 0 mm | 2.68 m/s, 23° | - | - |
| 1777632604 | 18.33° C | 48% | 1019.6 hPa | 0 mm | 2.68 m/s, 23° | - | - |
| 1777632003 | 18.33° C | 48% | 1019.6 hPa | 0 mm | 2.68 m/s, 23° | - | - |
| 1777631404 | 18.33° C | 48% | 1019.6 hPa | 0 mm | 2.68 m/s, 23° | - | - |
| 1777630804 | 18.33° C | 48% | 1019.6 hPa | 0 mm | 2.68 m/s, 23° | - | - |
| 1777630204 | 18.33° C | 48% | 1019.6 hPa | 0 mm | 2.68 m/s, 23° | - | - |
| 1777629604 | 18.89° C | 47% | 1019.5 hPa | 0 mm | 3.13 m/s, 23° | - | - |
| 1777629003 | 18.89° C | 47% | 1019.5 hPa | 0 mm | 3.13 m/s, 23° | - | - |
| 1777628404 | 18.89° C | 47% | 1019.5 hPa | 0 mm | 3.13 m/s, 23° | - | - |
* Rain latest hour (hover to see other rain measurements)
** Current wind speed in m/s (hover to see current wind gust speed)